Погода в Вильнюсе

Поиск расширенной информации на нашем сайте:

Полезная информация:

Новости сайта



02.01.2020
Опубликован Долгосрочный прогноз погоды по городам России и ближнего зарубежья на январь 2020 года.
Карты: Прогноз на январь и февраль 2020 года, Сравнение прогнозируемой аномалии приземной температуры воздуха на январь 2020 года по разным моделям.




Погода в Вильнюсе - сегодня

Время (UTC), дата Ветер
(°,м/с) 
Видим.   Явления Облачность Т
(°С)
Тd
(°С)
f(%) Тe
(°С)
Pmin
(гПа)
dP
(гПа)
Po
(мм)
O2
(г/м3)
Тmin Tmax R s Состояние
почвы
06 01.06.20 020 (С) 5-10{11}  20000 м    1/1 1500 м 
[Cu hum]
+11 -1.1 43 +10  1020.1  0.1  751  291  +7.4        влажная 
09 01.06.20 030 (СВ) 4-8{12}  19000 м    3/3 1500 м 
[Cu hum]
+13.2 -0.8 38 +13  1019.9  0.1  751  289           
12 01.06.20 010 (С) 5-9{11}  20000 м    5/5 2000 м 
[Cu hum]
+14.9 -0.9 34 +14  1018.6  -1.1  750  287           
15 01.06.20 010 (С) 4-10{12}  20000 м    9/4 2000 м средняя 
[Cu hum|Ac trans]
+15.7 +0.2 35 +16  1017.3  -1.3  749  285           
18 01.06.20 350 (С) 2-4{10}  20000 м    9/0 средняя 
[Ac As]
+13.8 +0.3 40 +14  1016.6  -0.8  748  287    +16.4       
21 01.06.20 360 (С) 1-3{05}  20000 м    4/0 верхняя 
[Cs]
+9.6 +1.4 57 +11  1017.1  0.2  749  291           
00 02.06.20 350 (С) 2-4{04}  20000 м    ясно 
+7.6 +2.6 71 +8  1016.1  -1.1  748  293           
03 02.06.20 360 (С) 2-5{05}  20000 м    ясно 
+6.8 +3 77 +7  1014.9  -1.2  747  293           
06 02.06.20 350 (С) 4-7{08}  20000 м    3/0 верхняя 
[Ci]
+12.3 +4.9 61 +12  1013.6  -0.9  746  287  +5.7        сухая 
09 02.06.20 030 (СВ) 6-12{13}  20000 м    4/4 1500 м 
[Cu hum]
+16.2 +0.6 35 +16  1011.6  -1.8  745  283           
12 02.06.20 020 (С) 5-10{15}  20000 м    9/9 1500 м 
[Cu med, cong]
+16.2 +1.9 38 +16  1010.6  -0.9  744  283           
15 02.06.20 040 (СВ) 4-9{13}  20000 м  {дождь}  9/8 2000 м средняя 
[Cu Sc|Ac As]
+15 +3.7 47 +15  1010.4  -0.3  744  284           
18 02.06.20 060 (СВ) 3-8{12}  20000 м  слаб. морось{дождь}  10/10 1470 м 
[Ns]
+11.9 +5.7 66 +12  1010.5  -0.1  744  286    +17.6  0.0     
21 02.06.20 040 (СВ) 4-8{11}  20000 м  {дождь, морось}  10/10 500 м 
[St]
+10.3 +7.2 81 +9  1009.9  -0.7  743  287           
00 03.06.20 050 (СВ) 3-5{09}  9000 м  в посл. час дождь{морось}  10/10 210 м 
[St]
+9.2 +8.3 94 +9  1008.9  -1  743  288      0.5     
03 03.06.20 050 (СВ) 3-5{06}  19000 м    10/10 240 м 
[St]
+9.3 +8.2 93 +9  1008.2  -0.7  742  288           
06 03.06.20 060 (СВ) 3-7{07}  20000 м    10/10 540 м 
[St]
+10.5 +7.6 82 +10  1008.1  742  287  +9.1    0.5    влажная 
09 03.06.20 050 (СВ) 3-6{07}  19000 м    6/6 600 м 
[Cu Sc]
+13.6 +7.4 66 +14  1007.6  -0.3  742  283           
12 03.06.20 060 (СВ) 3-6{08}  20000 м    8/8 2000 м 
[Cu Sc]
+16.5 +5.4 48 +17  1005.6  -1.8  740  280           
15 03.06.20 190 (Ю) 2-5{10}  16000 м  слаб. дождь  10/10 1500 м 
[Ns]
+10.6 +8.7 88 +11  1006.8  0.8  741  286           
18 03.06.20 040 (СВ) 3-5{05}  20000 м  {ливн. осадки, дождь}  6/0 средняя, верхняя 
[Ac cuf|Cs]
+9.8 +8.7 93 +9  1005.5  -1.3  740  286    +17.8     
21 03.06.20 040 (СВ) 1-3{06}  7000 м  дымка  3/0 средняя 
[Ac trans]
+8.7 +7.9 95 +10  1005.3  -0.3  740  288           
00 04.06.20 060 (СВ) 1-3{04}  14000 м    9/8 2000 м средняя 
[Sc|Ac trans]
+8.8 +8.3 97 +10  1004.5  -0.8  739  287           
03 04.06.20 тихо () -2{03}  19000 м  {дождь}  9/0 средняя 
[Sc|Ac As]
+8.7 +8.4 98 +9  1003.3  -1.2  738  287           
06 04.06.20 110 (В) 2-3{05}  20000 м  {дождь}  9/9 330 м 
[St]
+11 +8.9 87 +11  1002.8  -0.3  738  284  +8.2    0.0    влажная 
Время (UTC), дата Ветер
(°,м/с) 
Видим.   Явления Облачность Т
(°С)
Тd
(°С)
f(%) Тe
(°С)
Pmin
(гПа)
dP
(гПа)
Po
(мм)
O2
(г/м3)
Тmin Tmax R s Состояние
почвы

Для получения пояснительной информации подведите курсор к названию столбца.

ПОГОДА в Вильнюсе - архив

Всё, что Вы хотите узнать о погоде в Вильнюсе - удобно и подробно!

Выберите нужную дату (начиная с 1 января 2019* года) и нажмите кнопку "Найти".
Будут отображены архивные сводки погоды по пункту Вильнюс, начиная с указанной даты.


Отображать данные в формате CSV (для использования в таблицах Excel)


Внимание! Наш архив погоды предназначен исключительно для личного некоммерческого использования в познавательных целях. Если Вам необходимы официальные справки о состоянии погоды (для производственных, юридических, коммерческих и т.п. целей), обращайтесь в органы Росгидромета.

*Примечание: данная дата относится к архиву по метеостанциям СССР (Россия, СНГ, Балтия).
Архив по метеостанциям Зарубежной Европы и Азии (кроме Китая) хранится 10 дней, по другим регионам земного шара (Китай, Африка, Америка, Австралия, Океания) - 1 день.

Вильнюс - район местоположения метеостанции


Название, широта, долгота, высота метеостанции:
Вильнюс 54.6°ш. 25.1°д. 156 м над ур. моря [Литва]

Дополнительная информация

В oтличие oт бoльшинства пoгoдных сайтoв мы публикуем пoдрoбную метеoинфoрмацию в детальнoм прoфессиoнальнoм фoрмате.

Характеристики температуры и влажнoсти вoздуха измеряются на высoте 2 м в тени вдали oт зданий и деревьев.
Скoрoсть ветра измеряется на высoте 10 м (на урoвне рoста челoвека скoрoсть ветра ниже в 1.5-2 раза). Если метеoстанция нахoдится в гoрoде или в лесу, тo скoрoсть ветра занижена на 2-4 м/с пo сравнению с oткрытым местoм. Скoрoсть ветра над акватoриями крупных рек и oзёр, а также на вершинах хoлмoв на 2-5 м/с выше, чем в oбычных услoвиях.
Атмoсфернoе давление в разных тoчках местнoсти мoжет значительнo oтличаться oт давления на метеoстанции, в зависимoсти oт услoвий рельефа (при пoдъёме на 10 м давление пoнижается примернo на 1 мм рт.ст.).